This demonstration page uses our WeatherBlox Daily Observations layout. Learn more.

Left ArrowRight Arrow

41.86663, -103.66717

Hourly Observations for December 10, 2020

Temp ( °F °C ) Dew Point ( °F °C ) Humidity (%) Winds ( mph kmh ) Pressure ( in mb ) Visibility ( mi km ) Precip ( " mm )
12:53 am 00:53 Clear 31 -0.6 4 -15.6 31 31 NW 7 11 29.92 1013 10 16 0.00 0.00
1:53 am 01:53 Clear 35 1.7 5 -15 28 28 WNW 10 17 29.93 1014 10 16 0.00 0.00
2:53 am 02:53 Clear 31 -0.6 6 -14.4 35 35 W 9 15 29.96 1015 10 16 0.00 0.00
3:53 am 03:53 Clear 28 -2.2 9 -12.8 44 44 W 9 15 30.01 1016 10 16 0.00 0.00
4:53 am 04:53 Clear 29 -1.7 13 -10.6 51 51 WNW 8 13 30.04 1017 10 16 0.00 0.00
5:53 am 05:53 Clear 28 -2.2 16 -8.9 60 60 WNW 9 15 30.06 1018 10 16 0.00 0.00
6:53 am 06:53 Clear 27 -2.8 19 -7.2 72 72 NW 7 11 30.09 1019 10 16 0.00 0.00
7:53 am 07:53 Sunny 27 -2.8 19 -7.2 72 72 NW 5 7 30.11 1020 10 16 0.00 0.00
8:45 am 08:45 Mostly Cloudy 34 1.1 24 -4.4 67 67 NNE 12 19 30.17 1022 10 16 0.00 0.00
8:53 am 08:53 Cloudy 34 1.1 25 -3.9 70 70 N 10 17 30.14 1021 10 16 0.00 0.00
9:42 am 09:42 Cloudy 33 0.6 25 -3.9 72 72 NNE 12 19 30.22 1023 10 16 0.00 0.00
9:53 am 09:53 Cloudy 33 0.6 25 -3.9 72 72 NNE 12 19 30.16 1021 10 16 0.00 0.00
10:53 am 10:53 Cloudy 34 1.1 25 -3.9 70 70 N 8 13 30.16 1021 10 16 0.00 0.00
11:53 am 11:53 Cloudy 35 1.7 25 -3.9 67 67 N 9 15 30.14 1021 10 16 0.00 0.00
12:14 pm 12:14 Cloudy 35 1.7 25 -3.9 67 67 N 10 17 30.15 1021 10 16 0.00 0.00
12:53 pm 12:53 Cloudy 35 1.7 25 -3.9 67 67 NNE 13 20 30.11 1020 10 16 0.00 0.00
1:53 pm 13:53 Cloudy 35 1.7 25 -3.9 67 67 N 10 17 30.09 1019 10 16 0.00 0.00
2:53 pm 14:53 Cloudy 34 1.1 25 -3.9 70 70 NNE 12 19 30.09 1019 10 16 0.00 0.00
3:53 pm 15:53 Cloudy 34 1.1 24 -4.4 67 67 NNE 12 19 30.11 1020 10 16 0.00 0.00
4:53 pm 16:53 Cloudy 34 1.1 24 -4.4 67 67 NNE 10 17 30.11 1020 10 16 0.00 0.00
5:53 pm 17:53 Mostly Cloudy 32 0 23 -5 69 69 N 5 7 30.12 1020 10 16 0.00 0.00
6:35 pm 18:35 Partly Cloudy 31 -0.6 22 -5.6 69 69 NNE 8 13 30.17 1022 10 16 0.00 0.00
6:53 pm 18:53 Partly Cloudy 30 -1.1 22 -5.6 72 72 N 6 9 30.14 1021 10 16 0.00 0.00
7:07 pm 19:07 Mostly Cloudy 30 -1.1 22 -5.6 72 72 N 5 7 30.18 1022 10 16 0.00 0.00
7:53 pm 19:53 Mostly Cloudy 29 -1.7 21 -6.1 72 72 N 6 9 30.14 1021 10 16 0.00 0.00
8:05 pm 20:05 Partly Cloudy 28 -2.2 20 -6.7 72 72 NNE 5 7 30.20 1023 10 16 0.00 0.00
8:53 pm 20:53 Clear 27 -2.8 20 -6.7 75 75 N 5 7 30.14 1021 10 16 0.00 0.00
9:31 pm 21:31 Cloudy 27 -2.8 20 -6.7 75 75 N 5 7 30.23 1024 10 16 0.00 0.00
9:53 pm 21:53 Cloudy 27 -2.8 20 -6.7 75 75 N 3 6 30.14 1021 10 16 0.00 0.00
10:53 pm 22:53 Cloudy 28 -2.2 20 -6.7 72 72 NNE 8 13 30.14 1021 10 16 0.00 0.00
11:07 pm 23:07 Cloudy 28 -2.2 20 -6.7 72 72 NNE 6 9 30.22 1023 10 16 0.00 0.00
11:53 pm 23:53 Cloudy 28 -2.2 20 -6.7 72 72 N 5 7 30.11 1020 10 16 0.00 0.00

Powered by AerisWeather